Location: Norton
(51.3000°N, 0.8167°E)
Time: 18:05:55
(UTC+00:00)

CSL-04 Debris - Pass Details

Date: 03 March 2021
Orbit: 826 x 848 km, 98.9° (Epoch: 13 April)

Event Time Altitude Azimuth Distance (km) Brightness Sun altitude
Rises 18:24:39 0° 150° (SSE) 3,377 7.0 -7.6°
Reaches altitude 10° 18:27:01 10° 147° (SSE) 2,450 6.3 -8.0°
Maximum altitude 18:32:21 61° 68° (ENE) 955 4.2 -8.8°
Drops below altitude 10° 18:37:45 10° 350° (N) 2,479 6.8 -9.6°
Sets 18:40:09 0° 347° (NNW) 3,421 7.6 -10.0°
